TimeCDT,TemperatureF,Dew PointF,Humidity,Sea Level PressureIn,VisibilityMPH,Wind Direction,Wind SpeedMPH,Gust SpeedMPH,PrecipitationIn,Events,Conditions,WindDirDegrees,DateUTC
12:53 AM,30.9,17.1,57,30.43,10.0,North,6.9,-,N/A,,Clear,10,2013-03-26 05:53:00
1:53 AM,25.0,17.1,72,30.44,10.0,Calm,Calm,-,N/A,,Clear,0,2013-03-26 06:53:00
2:53 AM,28.0,15.1,58,30.44,10.0,Calm,Calm,-,N/A,,Clear,0,2013-03-26 07:53:00
3:53 AM,28.0,16.0,61,30.44,10.0,North,3.5,-,N/A,,Clear,10,2013-03-26 08:53:00
4:53 AM,27.0,16.0,63,30.44,10.0,North,8.1,-,N/A,,Clear,10,2013-03-26 09:53:00
5:53 AM,27.0,16.0,63,30.44,10.0,North,5.8,-,N/A,,Clear,10,2013-03-26 10:53:00
6:53 AM,24.1,15.1,69,30.47,10.0,SSE,3.5,-,N/A,,Clear,160,2013-03-26 11:53:00
7:53 AM,19.9,15.1,81,30.49,10.0,Calm,Calm,-,N/A,,Clear,0,2013-03-26 12:53:00
8:53 AM,30.9,19.0,61,30.50,10.0,NNE,3.5,-,N/A,,Clear,20,2013-03-26 13:53:00
9:53 AM,36.0,19.0,50,30.50,10.0,East,3.5,-,N/A,,Clear,90,2013-03-26 14:53:00
10:53 AM,42.1,18.0,38,30.49,10.0,Calm,Calm,-,N/A,,Clear,0,2013-03-26 15:53:00
11:53 AM,45.0,17.1,33,30.48,10.0,Variable,5.8,-,N/A,,Clear,0,2013-03-26 16:53:00
12:53 PM,48.9,19.9,32,30.45,10.0,SSW,8.1,-,N/A,,Clear,210,2013-03-26 17:53:00
1:53 PM,50.0,19.9,31,30.41,10.0,SW,8.1,-,N/A,,Clear,220,2013-03-26 18:53:00
2:53 PM,53.1,21.0,29,30.37,10.0,SSE,4.6,-,N/A,,Clear,160,2013-03-26 19:53:00
3:53 PM,55.0,21.0,27,30.32,10.0,SSE,8.1,-,N/A,,Clear,160,2013-03-26 20:53:00
4:53 PM,55.9,21.0,26,30.29,10.0,South,8.1,-,N/A,,Clear,190,2013-03-26 21:53:00
5:53 PM,57.9,19.9,23,30.26,10.0,SSE,9.2,-,N/A,,Clear,160,2013-03-26 22:53:00
6:53 PM,55.9,19.9,25,30.25,10.0,SSE,12.7,-,N/A,,Clear,150,2013-03-26 23:53:00
7:53 PM,51.1,21.0,31,30.25,10.0,SE,8.1,-,N/A,,Clear,130,2013-03-27 00:53:00
8:53 PM,46.9,23.0,39,30.24,10.0,SE,10.4,-,N/A,,Clear,130,2013-03-27 01:53:00
9:53 PM,46.0,24.1,42,30.24,10.0,SE,10.4,-,N/A,,Clear,130,2013-03-27 02:53:00
10:53 PM,46.9,24.1,41,30.24,10.0,SE,13.8,-,N/A,,Clear,140,2013-03-27 03:53:00
11:53 PM,45.0,25.0,46,30.23,10.0,SSE,12.7,-,N/A,,Clear,150,2013-03-27 04:53:00